[[{"header":{"parameterUnit":"m.s-1","parameterCategory":1,"la1":30.2991,"la2":30.254,"lo1":-89.0895,"lo2":-89.0444,"dy":0.0017,"dx":0.0017,"nx":28,"ny":28,"refTime":"2024-02-08T09:00:00:Z","depth":0,"parameterNumber":2,"parameterNumberName":"U-component_of_WINDS"},"data":[0,0,0,0,0,0,0,0,0,0,0,0,0,0,0,0,0,0,0,0,0,0,0,0,0,0,0,0,0,0,0,0,0,0,0,0,0,0,0,0,0,0,0,0,0,0,0,0,0,0,0,0,0,0,0,0,0,0,-2.1366,-2.1366,0,-2.1432,-2.1433,-2.1434,-2.1428,-2.1427,-2.1426,-2.1425,-2.1497,-2.15,-2.1503,0,0,0,0,0,0,0,0,0,0,0,0,0,-2.124,-2.1242,-2.1366,-2.1366,-2.1367,-2.1432,-2.1433,-2.1434,-2.1428,-2.1427,-2.1425,-2.1424,-2.1496,-2.1499,-2.1503,0,0,0,0,0,0,0,0,0,0,0,0,0,-2.1299,-2.1243,-2.1365,-2.1372,-2.1373,-2.1432,-2.1433,-2.1434,-2.1428,-2.1427,-2.1425,-2.1424,-2.1495,-2.1499,-2.1503,-2.1561,0,0,-2.1517,-2.1518,0,0,0,0,0,0,0,0,-2.1296,-2.1304,-2.137,-2.1372,-2.1373,-2.142,-2.1415,-2.1477,-2.1428,-2.1407,-2.1425,-2.1423,-2.1473,-2.1479,-2.1495,-2.1564,-2.1567,-2.1517,-2.152,-2.1521,-2.1523,0,0,0,0,0,0,0,-2.1292,-2.1301,-2.1392,-2.1371,-2.1373,-2.1374,-2.138,-2.1427,-2.1448,-2.1409,-2.1409,-2.1417,-2.1473,-2.1491,-2.1497,-2.1569,-2.1517,-2.1521,-2.1523,-2.1525,-2.1692,-2.1693,0,0,0,0,0,0,-2.1285,-2.1298,-2.139,-2.1394,-2.133,-2.1377,-2.1385,-2.1406,-2.1448,-2.1452,-2.1418,-2.1416,-2.1484,-2.1491,-2.1499,-2.157,-2.1521,-2.1525,-2.1528,-2.169,-2.1692,-2.1694,0,0,0,0,0,0,-2.1283,-2.1294,-2.1387,-2.1346,-2.1358,-2.1381,-2.1406,-2.1409,-2.1426,-2.1454,-2.1458,-2.1431,-2.1483,-2.1493,-2.1546,-2.1572,-2.1527,-2.1531,-2.1688,-2.169,-2.1693,-2.1712,0,0,0,0,0,0,-2.1279,-2.1293,-2.1313,-2.1346,-2.136,-2.1431,-2.1407,-2.1411,-2.1433,-2.1431,-2.1468,-2.1472,-2.1483,-2.1539,-2.155,-2.1577,-2.1535,-2.1685,-2.1689,-2.1692,-2.1709,-2.1715,-2.172,0,0,0,0,0,-2.1275,-2.1316,-2.1314,-2.1325,-2.1385,-2.1432,-2.144,-2.145,-2.1435,-2.1457,-2.1475,-2.1471,-2.1568,-2.1545,-2.1557,-2.1586,-2.1684,-2.1688,-2.1692,-2.1706,-2.1713,-2.172,0,0,0,0,0,0,-2.1286,-2.132,-2.1318,-2.1371,-2.1399,-2.1431,-2.1458,-2.1457,-2.149,-2.1488,-2.15,-2.1509,-2.1562,-2.158,-2.1553,-2.1645,-2.1624,-2.1631,-2.1631,-2.1638,-2.1644,-2.1638,-2.1538,0,0,0,0,0,-2.1295,-2.1328,-2.1357,-2.1401,-2.1415,-2.1435,-2.1455,-2.1461,-2.149,-2.1502,-2.1525,-2.1555,-2.1592,-2.1617,-2.1653,-2.1712,-2.1721,-2.1739,-2.1744,-2.1749,-2.1754,-2.1788,-2.1797,-2.1707,-2.1707,-2.1707,0,0,-2.1313,-2.1336,-2.1356,-2.1404,-2.1426,-2.1462,-2.1444,-2.1483,-2.151,-2.1509,-2.1559,-2.1577,-2.1612,-2.1669,-2.1695,-2.1685,-2.1781,-2.1754,-2.1757,-2.176,-2.1793,-2.1802,-2.1809,-2.171,-2.171,-2.1709,0,0,-2.1364,-2.1385,-2.1424,-2.1447,-2.148,-2.1493,-2.1503,-2.1536,-2.1547,-2.1599,-2.1599,-2.1633,-2.1697,-2.1722,-2.1743,-2.1808,-2.1806,-2.182,-2.1848,-2.1882,-2.1889,-2.1895,-2.1918,-2.1927,-2.1826,-2.1826,-2.1826,0,-2.1382,-2.1435,-2.1445,-2.1484,-2.1506,-2.1506,-2.1547,-2.157,-2.1613,-2.163,-2.1618,-2.17,-2.1723,-2.1787,-2.1803,-2.182,-2.1833,-2.1815,-2.1887,-2.1893,-2.1899,-2.1922,-2.193,-2.1827,-2.1827,-2.1827,-2.1827,0,-2.1457,-2.1493,-2.1522,-2.1563,-2.1589,-2.1629,-2.1647,-2.1673,-2.1677,-2.1692,-2.1746,-2.1775,-2.1817,-2.1834,-2.1838,-2.1899,-2.1892,-2.1884,-2.1862,-2.1909,-2.193,-2.1939,-2.1829,-2.1829,-2.1828,-2.1828,0,0,-2.1513,-2.1562,-2.1572,-2.1591,-2.163,-2.166,-2.1702,-2.1742,-2.1764,-2.1796,-2.1832,-2.1888,-2.1881,-2.1905,-2.1914,-2.1944,-2.1994,-2.1932,-2.1933,-2.1942,-2.2063,-2.2068,-2.2078,-2.1994,-2.1996,-2.1997,-2.206,0,-2.1568,-2.1639,-2.1651,-2.1715,-2.175,-2.1752,-2.1789,-2.1818,-2.1835,-2.1869,-2.1888,-2.1927,-2.1915,-2.193,-2.196,-2.1981,-2.2018,-2.1977,-2.2029,-2.203,-2.2018,-2.2089,-2.2094,-2.2151,-2.2069,-2.207,-2.2071,0,-2.164,-2.1673,-2.1739,-2.1775,-2.179,-2.1823,-2.1862,-2.1894,-2.1929,-2.1939,-2.1967,-2.1973,-2.2019,-2.1998,-2.2063,-2.2034,-2.2057,-2.2071,-2.2074,-2.2078,-2.2052,-2.2094,-2.217,-2.2179,-2.2085,-2.2083,-2.2083,0,-2.1675,-2.1736,-2.1784,-2.1801,-2.1843,-2.1866,-2.1886,-2.1918,-2.1943,-2.1979,-2.1995,-2.2036,-2.2059,-2.2092,-2.211,-2.2092,-2.2174,-2.2153,-2.2184,-2.2184,-2.2199,-2.2198,-2.2279,-2.2216,-2.2216,-2.2216,-2.2216,0,-2.1733,-2.1774,-2.18,-2.1829,-2.1876,-2.1891,-2.1938,-2.1957,-2.1987,-2.2022,-2.2028,-2.2061,-2.2083,-2.2121,-2.2135,-2.2187,-2.2198,-2.2208,-2.2212,-2.2207,-2.2205,-2.222,-2.2216,-2.2218,-2.2218,-2.2217,-2.2217,0,-2.1779,-2.1797,-2.185,-2.1887,-2.1897,-2.193,-2.1962,-2.1993,-2.201,-2.2055,-2.2066,-2.2095,-2.2139,-2.2161,-2.2216,-2.2227,-2.2285,-2.2287,-2.2273,-2.2274,-2.2303,-2.23,-2.2396,-2.241,-2.2339,-2.2339,-2.234,0,-2.1814,-2.1845,-2.1885,-2.1909,-2.1928,-2.1966,-2.1991,-2.2009,-2.2035,-2.2078,-2.2103,-2.2148,-2.2184,-2.2255,-2.2282,-2.2326,-2.2327,-2.2358,-2.2334,-2.2329,-2.2327,-2.2324,-2.2328,-2.2362,-2.2363,-2.2363,-2.2364,0,-2.1875,-2.1883,-2.1918,-2.1957,-2.1987,-2.2019,-2.205,-2.207,-2.2093,-2.2123,-2.2168,-2.2196,-2.2253,-2.2298,-2.2343,-2.2366,-2.2369,-2.2372,-2.2381,-2.2376,-2.2366,-2.2371,-2.2283,-2.2369,-2.2368,-2.2368,-2.2368,-2.2367,-2.1916,-2.1944,-2.1977,-2.2017,-2.2042,-2.2072,-2.2103,-2.2125,-2.2162,-2.2208,-2.2218,-2.2266,-2.2303,-2.2364,-2.2388,-2.2428,-2.2421,-2.2434,-2.2438,-2.244,-2.2442,-2.2361,-2.2436,-2.2436,-2.2436,-2.2436,-2.2436,0,-2.1976,-2.1998,-2.2034,-2.2078,-2.211,-2.2111,-2.2147,-2.2174,-2.2215,-2.2248,-2.2284,-2.2337,-2.2381,-2.2413,-2.2458,-2.2484,-2.2487,-2.2495,-2.2493,-2.2498,-2.2445,-2.2432,-2.2492,-2.2492,-2.2492,-2.2492,-2.2492,-2.2492,-2.2011,-2.2059,-2.2072,-2.2135,-2.2157,-2.2203,-2.2224,-2.2252,-2.2279,-2.2337,-2.2373,-2.2393,-2.2427,-2.2475,-2.2517,-2.2525,-2.2542,-2.255,-2.2558,-2.2508,-2.2502,-2.2496,-2.2484,-2.2554,-2.2554,-2.2608,-2.2608,-2.2609]},{"header":{"parameterUnit":"m.s-1","parameterCategory":1,"la1":30.2991,"la2":30.254,"lo1":-89.0895,"lo2":-89.0444,"dy":0.0017,"dx":0.0017,"nx":28,"ny":28,"refTime":"2024-02-08T09:00:00:Z","depth":0,"parameterNumber":3,"parameterNumberName":"V-component_of_WINDS"},"data":[0,0,0,0,0,0,0,0,0,0,0,0,0,0,0,0,0,0,0,0,0,0,0,0,0,0,0,0,0,0,0,0,0,0,0,0,0,0,0,0,0,0,0,0,0,0,0,0,0,0,0,0,0,0,0,0,0,0,1.7426,1.7428,0,1.7564,1.7566,1.7568,1.7624,1.7624,1.7623,1.7623,1.7766,1.777,1.7774,0,0,0,0,0,0,0,0,0,0,0,0,0,1.7214,1.7218,1.7426,1.7428,1.7429,1.7564,1.7566,1.7568,1.7624,1.7624,1.7623,1.7623,1.7765,1.777,1.7775,0,0,0,0,0,0,0,0,0,0,0,0,0,1.7325,1.7219,1.7426,1.7474,1.7479,1.7564,1.7566,1.7569,1.7624,1.7624,1.7623,1.7623,1.7763,1.7769,1.7775,1.7823,0,0,1.7794,1.7797,0,0,0,0,0,0,0,0,1.7318,1.7332,1.7465,1.747,1.7477,1.7576,1.7544,1.7654,1.7624,1.7569,1.7623,1.7622,1.7703,1.7715,1.7742,1.7829,1.7836,1.7795,1.7798,1.7801,1.7803,0,0,0,0,0,0,0,1.731,1.7327,1.7481,1.7467,1.7474,1.7489,1.7505,1.7565,1.7637,1.7574,1.7578,1.7594,1.7707,1.7735,1.7745,1.7838,1.7794,1.78,1.7804,1.7806,1.7975,1.7976,0,0,0,0,0,0,1.7295,1.732,1.7476,1.7485,1.7395,1.7494,1.7511,1.7545,1.7637,1.765,1.7594,1.7596,1.7725,1.7738,1.7751,1.7815,1.7801,1.7807,1.781,1.7974,1.7975,1.7976,0,0,0,0,0,0,1.729,1.7308,1.7471,1.7404,1.7426,1.7498,1.7536,1.7548,1.7577,1.7652,1.7666,1.761,1.7725,1.7742,1.7805,1.782,1.7809,1.7815,1.7973,1.7974,1.7976,1.7941,0,0,0,0,0,0,1.7283,1.7306,1.7324,1.7404,1.7429,1.7522,1.7537,1.7551,1.7587,1.7591,1.7671,1.7683,1.7726,1.7796,1.7811,1.7828,1.782,1.7972,1.7974,1.7975,1.7941,1.7941,1.7941,0,0,0,0,0,1.7276,1.7308,1.7324,1.7343,1.7453,1.7523,1.7537,1.7585,1.7588,1.7607,1.7656,1.7681,1.7816,1.7801,1.782,1.7839,1.7972,1.7973,1.7975,1.7941,1.7941,1.7941,0,0,0,0,0,0,1.7228,1.7319,1.7338,1.7397,1.7452,1.7532,1.7557,1.7583,1.7638,1.7639,1.7698,1.7715,1.7774,1.7813,1.7795,1.7891,1.7896,1.7901,1.7864,1.7864,1.7864,1.7854,1.7825,0,0,0,0,0,1.7224,1.7272,1.735,1.7395,1.7421,1.7485,1.7517,1.755,1.7608,1.7632,1.7685,1.7742,1.7798,1.7833,1.7888,1.7947,1.7966,1.7969,1.7969,1.7968,1.7973,1.801,1.8012,1.7982,1.7982,1.7982,0,0,1.7217,1.7273,1.73,1.7387,1.7433,1.7483,1.7503,1.7555,1.7593,1.764,1.7703,1.7744,1.7812,1.7874,1.7904,1.7908,1.7986,1.7971,1.797,1.7975,1.8012,1.8015,1.8017,1.7983,1.7983,1.7983,0,0,1.723,1.7276,1.732,1.7366,1.7435,1.7478,1.7488,1.7565,1.7595,1.7659,1.7696,1.7743,1.7836,1.7884,1.792,1.7954,1.7979,1.797,1.7969,1.8004,1.8006,1.8009,1.8023,1.8027,1.7974,1.7974,1.7974,0,1.7212,1.7288,1.7339,1.7389,1.7428,1.7472,1.7518,1.756,1.7644,1.767,1.7674,1.7794,1.7843,1.7918,1.7926,1.7953,1.7969,1.7961,1.8002,1.8005,1.8008,1.8022,1.8027,1.7972,1.7972,1.7973,1.7973,0,1.7265,1.7317,1.7344,1.7425,1.7466,1.7513,1.7573,1.7609,1.7638,1.7681,1.7747,1.7807,1.7876,1.7896,1.7925,1.7976,1.7977,1.799,1.7996,1.8008,1.8023,1.8028,1.797,1.7971,1.7971,1.7972,0,0,1.725,1.7359,1.7369,1.7407,1.7488,1.753,1.7581,1.7649,1.7679,1.7736,1.7782,1.7861,1.7875,1.7916,1.7951,1.7982,1.8008,1.7992,1.7995,1.7994,1.807,1.806,1.8065,1.8025,1.8026,1.8027,1.8065,0,1.7275,1.7367,1.7415,1.7487,1.7538,1.7582,1.7627,1.7682,1.7724,1.7774,1.782,1.7877,1.7889,1.7915,1.7947,1.7997,1.8024,1.7995,1.8069,1.8071,1.8052,1.8073,1.8062,1.8095,1.8071,1.8072,1.8072,0,1.7316,1.7373,1.745,1.7528,1.7551,1.759,1.7658,1.7704,1.7769,1.7797,1.7844,1.788,1.7937,1.7938,1.8019,1.7998,1.8032,1.8061,1.8064,1.8073,1.8073,1.8084,1.8106,1.8112,1.8081,1.808,1.808,0,1.7299,1.7396,1.7455,1.7486,1.7578,1.7605,1.7645,1.7709,1.7748,1.7807,1.7833,1.7898,1.7934,1.7984,1.8036,1.8032,1.8113,1.8118,1.8139,1.8138,1.8155,1.8153,1.8184,1.8174,1.8174,1.8174,1.8174,0,1.7323,1.7368,1.7449,1.7486,1.754,1.7596,1.7648,1.7691,1.7748,1.7795,1.7838,1.7881,1.7947,1.7999,1.8041,1.8103,1.8118,1.8144,1.8155,1.8141,1.8138,1.8164,1.8164,1.8175,1.8175,1.8175,1.8174,0,1.7313,1.7369,1.7437,1.7519,1.7541,1.7577,1.7648,1.7686,1.7731,1.779,1.7807,1.7877,1.7941,1.7999,1.8083,1.8111,1.8175,1.8187,1.8153,1.8159,1.8178,1.8176,1.8228,1.8238,1.8219,1.8219,1.8219,0,1.7325,1.7361,1.7448,1.7482,1.7521,1.7576,1.7616,1.7674,1.7714,1.7792,1.7821,1.7888,1.7945,1.8046,1.8105,1.8171,1.8186,1.82,1.8196,1.8182,1.8189,1.8186,1.8191,1.8199,1.8199,1.8199,1.8199,0,1.734,1.7366,1.7422,1.7488,1.7535,1.759,1.7646,1.7672,1.774,1.7784,1.785,1.7894,1.7981,1.8048,1.8121,1.8164,1.8194,1.82,1.8209,1.8196,1.8175,1.8188,1.8153,1.8199,1.8199,1.8199,1.8199,1.8199,1.7342,1.7378,1.7445,1.7507,1.7555,1.7608,1.7648,1.7699,1.7755,1.783,1.7861,1.7929,1.7996,1.8097,1.8139,1.8194,1.82,1.8212,1.8215,1.8218,1.8216,1.8165,1.8207,1.8207,1.8208,1.8208,1.8208,0,1.7361,1.7407,1.7463,1.7541,1.759,1.7614,1.7678,1.7718,1.7777,1.7837,1.7892,1.797,1.8036,1.8101,1.8171,1.8202,1.8218,1.8219,1.8218,1.8228,1.8206,1.8193,1.8205,1.8205,1.8205,1.8205,1.8205,1.8205,1.7376,1.7439,1.7474,1.7562,1.7608,1.7674,1.771,1.7759,1.7807,1.7892,1.7947,1.7989,1.8052,1.8127,1.8189,1.8207,1.8231,1.8228,1.825,1.8229,1.8229,1.8228,1.8216,1.8233,1.8233,1.8267,1.8267,1.8267]}]]